Weather in Velikiy Oktyabr

Russia / Volgograd Oblast     48°39′35″N   44°43′42″E
temp.,
°C
wind,
m/s
gust,
m/s
humid.,
%
clouds,
%
prec.,
mm/h
press.,
hPa
HPBL,
m
28 july, wed
wed2800:00+24ne2432100 0.0 1017102
03:00+23n11365 0.0 101625
06:00+24nw23355 0.0 1017127
09:00+29nnw33263 0.0 1016989
12:00+32n34231 0.0 10153005
15:00+33nne452113 0.0 10143294
18:00+32ne34236 0.0 10141920
21:00+28ne363028 0.0 1014190
29 july, thu
thu2900:00+27e2532100 0.0 1014168
03:00+25se2336100 0.0 101493
06:00+25sse23345 0.0 1014115
09:00+31sw34235 0.0 1013900
12:00+34sw451996 0.0 10123400
15:00+35wsw551855 0.0 10113035
18:00+34wsw451880 0.0 10092686
21:00+30nne233233 0.0 1010172
30 july, fri
fri3000:00+27ssw22366 0.0 101046
03:00+26wsw233776 0.0 101081
06:00+27w24385 0.0 1010147
09:00+32wsw35294 0.0 1010987
12:00+36wsw562138 0.0 10093363
15:00+36wsw561991 0.0 10083066
18:00+35wsw56195 0.0 10082486
21:00+31wsw49255 0.0 1008249
31 july, sat
sat3100:00+27nnw364524 0.0 1009157
03:00+27ssw0146100 0.0 1009112
06:00+27ssw244427 0.0 1009148
09:00+33sw342538 0.0 1009808
12:00+35sw451998 0.0 10091660
15:00+35ssw4518100 0.0 10081438
18:00+28nne68465 0.0 1010334
21:00+27nne354385 0.0 1010128
1 august, sun
sun100:00+27e234094 0.0 101195
03:00+27ene224130 0.0 101161
06:00+27ene234272 0.0 1012122
09:00+31e343161 0.0 1012603
12:00+37ese13196 0.0 10102630
15:00+36nnw2218100 0.0 10092151
18:00+36ne342025 0.0 1009653
21:00+32e252574 0.0 1010128